Regional Weather Roundup
Issued by NWS

Home | Current Version | Previous Version | Text Only | Print | Product List | Glossary On
Versions: 1 2 3 4 5 6 7 8 9 10 11 12 13 14 15 16 17 18 19 20 21 22 23 24 25 26 27 28 29 30 31 32 33 34 35 36 37 38 39 40 41 42 43 44 45 46 47 48 49 50
000
ASCA44 KEWX 232120
RWRMX

LATIN AMERICA AND CARIBBEAN REGIONAL WEATHER ROUNDUP
NATIONAL WEATHER SERVICE AUSTIN/SAN ANTONIO TX
400 PM CDT TUE MAY 23 2017

NOTE: "FAIR" INDICATED FEW OR NO CLOUDS BELOW 12,000 FEET WITH NO
SIGNIFICANT WEATHER AND/OR OBSTRUCTIONS TO VISIBILITY.

BAJA CALIFORNIA

CITY           SKY/WX    TMP DP  RH WIND       PRES   REMARKS
LORETO         SUNNY     93  68  43 NE10      29.78F HX  97
LA PAZ         SUNNY     95  27   8 N14       29.82F
MEXICALI       SUNNY    106  23   5 SW6       29.79F HX  98
S.J. DEL CABO  SUNNY     88  48  25 SE21      29.83F
TIJUANA        MOSUNNY   70  55  60 W9        29.98S

NORTHWESTERN MEXICO

CITY           SKY/WX    TMP DP  RH WIND       PRES   REMARKS
CULIACAN       SUNNY     93  59  31 S12       29.80F HX  92
DURANGO        PTSUNNY   86  25  10 W3        30.07F
GUAYMAS        SUNNY     97  61  30 S14       29.75F HX  97
HERMOSILLO     SUNNY    106  37   9 NW7       29.81F HX 100
CD. JUAREZ     MOSUNNY   86  45  23 S5        29.93F
LOS MOCHIS     SUNNY     90  43  19 W12       29.82F
OBREGON        SUNNY    100  41  13 W8        29.75F HX  96

NORTHEASTERN MEXICO

CITY           SKY/WX    TMP DP  RH WIND       PRES   REMARKS
CHIHUAHUA      SUNNY     91  32  12 NE9       29.99F
MATAMOROS      CLOUDY    77  72  83 E9        29.77F
MONCLOVA       PTSUNNY   84  59  42 NE22      29.80F
MONTERREY      PTSUNNY   88  70  55 SE10      29.79F HX  92
NUEVO LAREDO   CLOUDY    86  70  58 NE7       29.81F HX  90
PIEDRAS NEGRAS PTSUNNY   79  66  65 SE7       29.87F
REYNOSA        CLOUDY    86  72  62 E16       29.75S HX  92
SALTILLO       SUNNY     86  57  37 NE21      29.98F
TORREON        MOSUNNY   97  52  21 N13       29.89F HX  94
CD. VICTORIA   MOSUNNY   91  66  43 SW6       29.73F HX  94

WESTERN MEXICO

CITY           SKY/WX    TMP DP  RH WIND       PRES   REMARKS
AGUASCALIENTES MOSUNNY   90   7   4 S9        30.08F
COLIMA         PTSUNNY   88  70  55 W9        29.88F HX  92
DEL BAJIO      MOSUNNY   91  30  11 SW3       30.12F
GUADALAJARA    PTSUNNY   90  28  11 NW12G25   30.04F
MANZANILLO     MOSUNNY   81  73  78 W14       29.78F
MAZATLAN       PTSUNNY   86  66  51 W10       29.83F
P. VALLARTA    MOSUNNY   81  75  83 SW14      29.81F
URUAPAN        CLOUDY    82  63  51 SW9       30.07F
ZACATECAS      PTSUNNY   88  28  11 W5        30.12F

CENTRAL MEXICO

CITY           SKY/WX    TMP DP  RH WIND       PRES   REMARKS
CUERNAVACA     PTSUNNY   91  61  35 CALM      29.93F HX  91
MEXICO CITY    MOSUNNY   86  32  14 SE5       30.16F
MORELIA        MOSUNNY   91  37  15 W5        30.06F
POZA RICA      PTSUNNY   95  73  49 E7        29.72F HX 105
PUEBLA         PTSUNNY   77  57  50 S18       30.19F
QUERETARO      PTSUNNY   90  27  10 W17       30.12F
S. LUIS POTOSI MOSUNNY   91  30  11 SE8       30.03F
TAMPICO        SUNNY     88  77  70 S12       29.69F HX 100
TOLUCA         PTSUNNY   79  37  22 W8        30.26F

SOUTHERN MEXICO

CITY           SKY/WX    TMP DP  RH WIND       PRES   REMARKS
ACAPULCO       PTSUNNY   90  77  66 SW6       29.77F HX 102
B. DE HUATULCO PTSUNNY  N/A N/A N/A E12       29.86F
OAXACA         CLOUDY    90  48  24 CALM      29.99F
P. ESCONDIDO   CLOUDY    86  75  70 SE12      29.89F HX  95
VERACRUZ       MOSUNNY   97  75  49 SE8       29.66F HX 109
ZIHUATANEJO    PTSUNNY   91  77  62 SW12      29.79F HX 105

YUCATAN PENINSULA

CITY           SKY/WX    TMP DP  RH WIND       PRES   REMARKS
CAMPECHE       MOSUNNY   93  73  52 N12G23    29.69S HX 102
CANCUN         PTSUNNY   88  75  66 SE16      29.84S HX  97
CHETUMAL       MOSUNNY   88  75  66 SE17      29.77F HX  97
CD. DEL CARMEN PTSUNNY   91  79  66 N13       29.70F HX 107
COZUMEL        MOSUNNY   88  75  66 SE18      29.83S HX  97
MERIDA         PTSUNNY  102  66  30 S10       29.73S HX 107
MINATITLAN     MOSUNNY   97  75  49 S17       29.66F HX 109
TAPACHULA      PTSUNNY   88  77  70 S8        29.77F HX 100
TUX. GUTIERREZ MOSUNNY   95  66  38 S9        29.77F HX  98
VILLAHERMOSA   MOSUNNY  100  73  41 CALM      29.70F HX 111

CENTRAL AMERICA

CITY           SKY/WX    TMP DP  RH WIND       PRES   REMARKS
BELIZE CITY    MOSUNNY   90  77  66 SE9       29.75F HX 102
MANAGUA        PTCLDY    91  75  59 SE7       29.74F HX 102

CARIBBEAN

CITY           SKY/WX    TMP DP  RH WIND       PRES   REMARKS
ARUBA          MOSUNNY   88  77  70 E23       29.83F HX 100
CURACAO        MOSUNNY   84  75  74 E14       29.86S HX  92
KINGSTON       MOSUNNY   86  75  70 SE22      29.89  HX  95
NASSAU         MOSUNNY   88  75  66 SE8       29.95S HX  97
SAN JUAN       MOSUNNY   86  75  70 E18       30.00S HX  95
SANTO DOMINGO  PTSUNNY   88  75  66 S5        29.94F HX  97
ST. CROIX      MOSUNNY   84  75  74 E17       30.01  HX  92
ST. KITTS      MOSUNNY   82  75  78 E14       30.00S
ST. MAARTEN    MOSUNNY   82  75  78 E12       30.03R
ST. THOMAS     MOSUNNY   88  75  66 SE14      30.01  HX  97

$$





USA.gov is the U.S. government's official web portal to all federal, state and local government web resources and services.